AirNav   Everest Fuels
 
 1317 users online  

W94 Camp Peary Landing Strip Airport
Williamsburg, Virginia, USA

GOING TO WILLIAMSBURG?


FAA INFORMATION EFFECTIVE 08 OCTOBER 2020

Location

FAA Identifier: W94
Lat/Long: 37-18-46.0594N 076-38-17.5821W
37-18.767657N 076-38.293035W
37.3127943,-76.6382172
(estimated)
Elevation: 40.8 ft. / 12 m (estimated)
Variation: 11W (2010)
From city: 3 miles NE of WILLIAMSBURG, VA
Time zone: UTC -4 (UTC -5 during Standard Time)
Zip code: 23188

Airport Operations

Airport use: Private use, THIS FLD IS DOD RESTRICTED.
Activation date: 07/1958
Control tower: no
ARTCC: WASHINGTON CENTER
FSS: LEESBURG FLIGHT SERVICE STATION
NOTAMs facility: DCA (NOTAM-D service available)
Attendance: MON-FRI 0800-1630
Wind indicator: yes
Segmented circle: no
Lights: SS-SR

Airport Communications

NORFOLK APPROACH: 125.7
NORFOLK DEPARTURE: 125.7
WX AWOS-3 at JGG (6 nm SW): 120.625 (757-220-8810)
WX ASOS at PHF (13 nm SE): PHONE 757-874-3682
WX AWOS-3 at FYJ (14 nm NW): 132.825 (804-785-2307)
WX AWOS-3 at W75 (20 nm NE): 118.45 (804-758-8592)
  • APCH/DEP SVC PRVDD BY ORF APCH ON 125.7/335.625.

Nearby radio navigation aids

VOR radial/distance  VOR name  Freq  Var
HCMr164/8.9HARCUM VORTAC108.8007W
HPWr098/22.8HOPEWELL VORTAC112.0006W
CCVr276/30.6CAPE CHARLES VORTAC112.2010W
ORFr327/32.8NORFOLK VORTAC116.9007W
RICr118/34.4RICHMOND VORTAC114.1009W

 
NDB name  Hdg/Dist  Freq  Var  ID
WAKEFIELD052/26.327411WAKQ .- -.- --.-

Airport Services

Airframe service: NONE
Powerplant service: NONE

Runway Information

Runway 5/23

Dimensions: 5018 x 151 ft. / 1529 x 46 m
FLD CLSD TO ALL CIV & MIL ACFT WO PRIOR APVL OF BASE COMDR.
Surface: asphalt
Runway edge lights: low intensity
RUNWAY 5  RUNWAY 23
Latitude: 37-18.448248N37-19.087063N
Longitude: 076-38.621737W076-37.964333W
Elevation: 40.8 ft.31.3 ft.
Traffic pattern: leftleft
Visual slope indicator: 4-light PAPI on left4-light PAPI on left
Touchdown point: yes, no lightsyes, no lights

Airport Ownership and Management from official FAA records

Ownership: U.S. Army
Owner: US ARMY AERONAUTICAL SVCS AGENCY
FT BELVOIR, VA 22060
Manager: DAVID J CROMLEY
AFETA-CAMP PEARY
WILLIAMSBURG, VA 23185
Phone 804-229-2121
COLONEL INFANTRY.

Additional Remarks

CAUTION: FLD RSTD, PPR BY WRITTEN REQ TO BASE COMDR, ATTN: AIR OPS. EXC WHEN OPR UNDER PRIOR PERMS AUTH, PILOTS SHOULD MAINT AT LEAST 3000 FT ABV THE ARPT ELEV WITHIN 5 NM.
FOR CD CTC NORFOLK APCH AT 757-464-0757.

Instrument Procedures

NOTE: All procedures below are presented as PDF files. If you need a reader for these files, you should download the free Adobe Reader.

NOT FOR NAVIGATION. Please procure official charts for flight.
FAA instrument procedures published for use from 08 October 2020 at 0901Z to 05 November 2020 at 0900Z.

 
IAPs - Instrument Approach Procedures
RNAV (GPS) RWY 05   download (196KB)
RNAV (GPS) RWY 23   download (129KB)
VOR-A   download (122KB)
NOTE: Special Take-Off Minimums/Departure Procedures apply   download (140KB)

Other nearby airports with instrument procedures:

KJGG - Williamsburg-Jamestown Airport (6 nm SW)
KFAF - Felker Army Airfield (11 nm S)
KPHF - Newport News/Williamsburg International Airport (13 nm SE)
KFYJ - Middle Peninsula Regional Airport (14 nm NW)
KLFI - Langley Air Force Base (19 nm SE)
W75 - Hummel Field Airport (20 nm NE)
 
Loc | Ops | Rwys | IFR | FBO | Links
Com | Nav | Svcs | Stats | Notes
Area around W94 (Camp Peary Landing Strip Airport)
 
Road maps at: MapQuest Bing Google
 
Aerial photo
WARNING: Photo may not be current or correct
Aerial photo of W94 (Camp Peary Landing Strip Airport)
Photo by Glenn Woodell, of NASA Langley Research Center
Photo taken 10-Apr-2014
looking south.

Do you have a better or more recent aerial photo of Camp Peary Landing Strip Airport that you would like to share? If so, please send us your photo.

 
Sectional chart

 
Airport distance calculator
Flying to Camp Peary Landing Strip Airport? Find the distance to fly.

From to W94

Sunrise and sunset
Times for 22-Oct-2020
 Local
(UTC-4)
 Zulu
(UTC)
Morning civil twilight06:5710:57
Sunrise07:2311:23
Sunset18:1922:19
Evening civil twilight18:4522:45

Current date and time
Zulu (UTC)  22-Oct-2020 21:38:46
Local (UTC-4)  22-Oct-2020 17:38:46
 
METAR
KJGG 
6nm SW 
222115Z AUTO 00000KT 10SM CLR 23/20 A3021 RMK AO1
KFAF 
12nm S 
222056Z AUTO 15003KT 10SM CLR 23/20 A3018 RMK AO2 SLP223 T02320203 57005 $
KPHF 
13nm SE 
222054Z AUTO 11005KT 10SM CLR 24/18 A3020 RMK AO2 SLP226 T02390183 56004
KFYJ 
14nm NW 
222115Z AUTO 15004KT 5SM CLR 24/19 A3021 RMK AO1 T02350187
KW75 
20nm NE 
222115Z AUTO 00000KT 10SM CLR 22/20 A3020 RMK AO1 T02230195
KLFI 
20nm SE 
222056Z AUTO 14004KT 10SM CLR 23/20 A3020 RMK AO2 SLP233 T02270202 57006 $
TAF
KFAF 
12nm S 
221800Z 2218/2324 VRB06KT 9999 SCT010 BKN250 QNH3020INS BECMG 2303/2304 VRB06KT 3200 SCT007 QNH3021INS TEMPO 2303/2307 0800 FG BECMG 2312/2313 VRB06KT 9999 NSW BKN010 QNH3019INS TX26/2219Z TN16/2312Z
KPHF 
13nm SE 
221720Z 2218/2318 VRB04KT P6SM BKN250 FM230700 00000KT 2SM BR BKN090 FM230900 00000KT 1/2SM FG BKN005 FM231500 07004KT P6SM BKN030 FM231700 08005KT P6SM SCT060
KLFI 
20nm SE 
221700Z 2217/2323 09006KT 9999 FEW050 SCT100 SCT250 QNH3021INS BECMG 2223/2300 09006KT 4800 BR FEW010 SCT030 SCT250 QNH3022INS BECMG 2303/2304 06006KT 3200 BR SCT007 QNH3022INS BECMG 2311/2312 09006KT 9999 NSW BKN010 QNH3021INS TX25/2217Z TN19/2305Z
NOTAMs
Click for the latest NOTAMs
NOTAMs are issued by the DoD/FAA and will open in a separate window not controlled by AirNav.

 

 
 

Would you like to see your business listed on this page?

 If your business provides an interesting product or service to pilots, flight crews, aircraft, or users of the Camp Peary Landing Strip Airport, you should consider listing it here.  To start the listing process, click on the button below
 
Add a business
 

Other Pages about Camp Peary Landing Strip Airport

Update a link
 
Copyright © AirNav, LLC. All rights reserved. Privacy Policy  Contact